Bartlesville, OK

2:58 PM CDT on September 24, 2017 (GMT -0500)
Bartlesville Municipal

Weather History for KBVO - July, 2013

Change the Weather History Date:

Thursday, July 18, 2013

  Actual Average Record
Temperature  
Mean Temperature 81 °F -  
Max Temperature 98 °F 94 °F 111 °F (1954)
Min Temperature 66 °F 71 °F 57 °F (2014)
Cooling Degree Days 16    
Growing Degree Days 31 (Base 50)    
Moisture  
Dew Point 67 °F    
Average Humidity 67    
Maximum Humidity 100    
Minimum Humidity 33    
Precipitation  
Precipitation 0.00 in - - ()
Sea Level Pressure  
Sea Level Pressure 30.11 in    
Wind  
Wind Speed 2 mph (SSW)    
Max Wind Speed 9 mph    
Max Gust Speed -    
Visibility 10 miles    
Events      
Averages and records for this station are not official NWS values.
T = Trace of Precipitation, MM = Missing Value Source: NWS Daily Summary

Daily Weather History Graph

Daily Weather History Graph

Search for Another Location

Airport or City:

Trip Planner

Search our weather history database for the weather conditions in past years. The results will help you decide how hot, cold, wet, or windy it might be!

Date:

Astronomy

Jul. 18, 2013 Rise Set
Actual Time 6:19 AM CDT 8:41 PM CDT
Civil Twilight 5:49 AM CDT 9:10 PM CDT
Nautical Twilight 5:12 AM CDT 9:47 PM CDT
Astronomical Twilight 4:32 AM CDT 10:27 PM CDT
Moon 4:39 PM CDT (7/18) 2:08 AM CDT (7/18)
Length of Visible Light 15h 21m
Length of Day
14h 21m
Waxing Gibbous, 77% of the Moon is Illuminated
Jul 18
Waxing Gibbous
Jul 22
Full
Jul 29
Last Quarter
Aug 6
New
Aug 14
First Quarter

Hourly Weather History & Observations

Time (CDT) Temp. Heat Index Dew Point Humidity Pressure Visibility Wind Dir Wind Speed Gust Speed Precip Events Conditions
12:53 AM 71.1 °F - 68.0 °F 90% 30.18 in 10.0 mi Calm Calm - N/A   Clear
1:53 AM 70.0 °F - 68.0 °F 93% 30.18 in 10.0 mi Calm Calm - N/A   Clear
2:53 AM 69.1 °F - 68.0 °F 96% 30.17 in 10.0 mi Calm Calm - N/A   Clear
3:53 AM 68.0 °F - 66.9 °F 96% 30.17 in 10.0 mi Calm Calm - N/A   Clear
4:53 AM 66.9 °F - 66.9 °F 100% 30.17 in 9.0 mi Calm Calm - N/A   Clear
5:53 AM 66.9 °F - 66.9 °F 100% 30.17 in 8.0 mi Calm Calm - N/A   Clear
6:53 AM 68.0 °F - 66.9 °F 96% 30.18 in 8.0 mi Calm Calm - N/A   Clear
7:53 AM 73.9 °F - 69.1 °F 85% 30.18 in 10.0 mi Calm Calm - N/A   Clear
8:53 AM 80.1 °F 83.2 °F 70.0 °F 71% 30.19 in 10.0 mi Calm Calm - N/A   Partly Cloudy
9:53 AM 86.0 °F 90.7 °F 70.0 °F 59% 30.18 in 10.0 mi Variable 3.5 mph - N/A   Clear
10:53 AM 89.1 °F 92.1 °F 66.9 °F 48% 30.17 in 10.0 mi South 6.9 mph - N/A   Clear
11:53 AM 91.9 °F 95.9 °F 68.0 °F 45% 30.15 in 10.0 mi South 6.9 mph - N/A   Mostly Cloudy
12:53 PM 93.0 °F 97.4 °F 68.0 °F 44% 30.13 in 10.0 mi SW 9.2 mph - N/A   Scattered Clouds
1:53 PM 93.9 °F 97.5 °F 66.9 °F 41% 30.11 in 10.0 mi South 8.1 mph - N/A   Partly Cloudy
2:53 PM 93.0 °F 94.2 °F 63.0 °F 37% 30.08 in 10.0 mi South 5.8 mph - N/A   Scattered Clouds
3:53 PM 96.1 °F 97.3 °F 63.0 °F 33% 30.05 in 10.0 mi SSW 6.9 mph - N/A   Partly Cloudy
4:53 PM 93.0 °F 95.9 °F 66.0 °F 41% 30.03 in 10.0 mi WSW 3.5 mph - N/A   Clear
5:53 PM 93.9 °F 95.6 °F 64.0 °F 37% 30.01 in 10.0 mi South 8.1 mph - N/A   Clear
6:53 PM 93.0 °F 94.6 °F 64.0 °F 38% 30.00 in 10.0 mi WSW 6.9 mph - N/A   Scattered Clouds
7:53 PM 89.1 °F 90.0 °F 63.0 °F 42% 30.00 in 10.0 mi WSW 4.6 mph - N/A   Clear
8:53 PM 80.1 °F 82.7 °F 68.0 °F 67% 30.01 in 10.0 mi Calm Calm - N/A   Clear
9:53 PM 75.0 °F - 68.0 °F 79% 30.02 in 10.0 mi Calm Calm - N/A   Clear
10:53 PM 73.9 °F - 69.1 °F 85% 30.02 in 10.0 mi Calm Calm - N/A   Clear
11:53 PM 73.0 °F - 68.0 °F 84% 30.01 in 10.0 mi Calm Calm - N/A   Clear